[[{"header":{"parameterUnit":"m.s-1","parameterCategory":1,"la1":30.2991,"la2":30.254,"lo1":-89.0895,"lo2":-89.0444,"dy":0.0017,"dx":0.0017,"nx":28,"ny":28,"refTime":"2025-12-23T09:00:00:Z","depth":0,"parameterNumber":2,"parameterNumberName":"U-component_of_WINDS"},"data":[0,0,0,0,0,0,0,0,0,0,0,0,0,0,0,0,0,0,0,0,0,0,0,0,0,0,0,0,0,0,0,0,0,0,0,0,0,0,0,0,0,0,0,0,0,0,0,0,0,0,0,0,0,0,0,0,0,0,-3.9426,-3.9426,0,-3.9453,-3.9453,-3.9454,-3.9385,-3.9383,-3.9381,-3.9379,-3.9409,-3.9412,-3.9414,0,0,0,0,0,0,0,0,0,0,0,0,0,-3.9319,-3.9322,-3.9426,-3.9426,-3.9427,-3.9453,-3.9453,-3.9454,-3.9386,-3.9383,-3.9381,-3.9378,-3.9408,-3.9411,-3.9415,0,0,0,0,0,0,0,0,0,0,0,0,0,-3.9358,-3.9322,-3.9426,-3.9396,-3.9394,-3.9453,-3.9453,-3.9454,-3.9386,-3.9383,-3.938,-3.9377,-3.9407,-3.9411,-3.9415,-3.9505,0,0,-3.9428,-3.943,0,0,0,0,0,0,0,0,-3.9356,-3.9362,-3.94,-3.9398,-3.9396,-3.9412,-3.9426,-3.9471,-3.9387,-3.9389,-3.9379,-3.9375,-3.9413,-3.9416,-3.9429,-3.9507,-3.9508,-3.9428,-3.9431,-3.9433,-3.9434,0,0,0,0,0,0,0,-3.9353,-3.936,-3.9437,-3.9401,-3.9398,-3.9382,-3.9384,-3.9435,-3.9419,-3.9389,-3.9384,-3.9388,-3.9411,-3.9425,-3.9429,-3.9509,-3.9428,-3.9432,-3.9435,-3.9436,-3.9663,-3.9667,0,0,0,0,0,0,-3.9354,-3.9359,-3.9436,-3.9438,-3.9367,-3.9387,-3.9389,-3.941,-3.9418,-3.9416,-3.9391,-3.9385,-3.9419,-3.9424,-3.943,-3.9536,-3.9433,-3.9437,-3.9439,-3.966,-3.9664,-3.9668,0,0,0,0,0,0,-3.9352,-3.9362,-3.9435,-3.9397,-3.9405,-3.9392,-3.9417,-3.9413,-3.9426,-3.9419,-3.9417,-3.9407,-3.9417,-3.9424,-3.9487,-3.9536,-3.9438,-3.9442,-3.9656,-3.9661,-3.9666,-3.9749,0,0,0,0,0,0,-3.9349,-3.9361,-3.9395,-3.9398,-3.9407,-3.9491,-3.942,-3.9415,-3.9433,-3.9426,-3.9434,-3.9433,-3.9415,-3.9481,-3.9491,-3.954,-3.9446,-3.9651,-3.9658,-3.9664,-3.9742,-3.9757,-3.9769,0,0,0,0,0,-3.9346,-3.9417,-3.9397,-3.9406,-3.9448,-3.9494,-3.9499,-3.9477,-3.9437,-3.9471,-3.9467,-3.9432,-3.9529,-3.9488,-3.9499,-3.955,-3.9648,-3.9656,-3.9664,-3.9736,-3.9754,-3.9769,0,0,0,0,0,0,-3.942,-3.9417,-3.9394,-3.9469,-3.9482,-3.9482,-3.9524,-3.9496,-3.9522,-3.9514,-3.9485,-3.9488,-3.9557,-3.956,-3.9514,-3.9638,-3.9582,-3.9593,-3.9633,-3.965,-3.9663,-3.9661,-3.9449,0,0,0,0,0,-3.9445,-3.9481,-3.9477,-3.9544,-3.9552,-3.9537,-3.9556,-3.9538,-3.9551,-3.9556,-3.9557,-3.9572,-3.9605,-3.9628,-3.9659,-3.9743,-3.9744,-3.9783,-3.9797,-3.9808,-3.9817,-3.9862,-3.988,-3.9694,-3.9694,-3.9694,0,0,-3.9497,-3.95,-3.9525,-3.9559,-3.9567,-3.9606,-3.9542,-3.9586,-3.9615,-3.9563,-3.9622,-3.9624,-3.9639,-3.9713,-3.9746,-3.9718,-3.9869,-3.9818,-3.9827,-3.983,-3.9872,-3.989,-3.9905,-3.9699,-3.9698,-3.9698,0,0,-3.9611,-3.9618,-3.9673,-3.9683,-3.9696,-3.9687,-3.9701,-3.9706,-3.9704,-3.9764,-3.9725,-3.9761,-3.9819,-3.9831,-3.9845,-3.9967,-3.9936,-3.9978,-4.0049,-4.0093,-4.0108,-4.0121,-4.0164,-4.018,-3.9988,-3.9988,-3.9988,0,-3.9674,-3.9731,-3.9706,-3.9753,-3.9769,-3.9724,-3.9781,-3.9792,-3.9815,-3.9828,-3.9796,-3.987,-3.9876,-3.9953,-3.9983,-3.9996,-4.0011,-3.9976,-4.0108,-4.012,-4.0132,-4.0173,-4.0189,-3.9993,-3.9992,-3.9992,-3.9991,0,-3.9808,-3.9848,-3.9892,-3.9915,-3.9937,-3.9989,-3.9972,-3.9998,-3.9978,-3.9972,-4.0034,-4.0041,-4.0073,-4.009,-4.0071,-4.0165,-4.0147,-4.0112,-4.0055,-4.0155,-4.0193,-4.0208,-4.0,-3.9998,-3.9997,-3.9995,0,0,-3.9968,-3.9977,-3.9994,-4.0004,-4.0016,-4.0047,-4.0098,-4.0129,-4.0151,-4.017,-4.0212,-4.0263,-4.0232,-4.0248,-4.023,-4.027,-4.0366,-4.023,-4.023,-4.0255,-4.047,-4.0495,-4.0513,-4.0346,-4.0349,-4.0351,-4.0468,0,-4.008,-4.0166,-4.0146,-4.0231,-4.0268,-4.0227,-4.0271,-4.0285,-4.0281,-4.0313,-4.031,-4.0347,-4.0302,-4.0311,-4.0349,-4.0346,-4.0409,-4.0338,-4.0385,-4.0387,-4.0382,-4.0533,-4.056,-4.0669,-4.0483,-4.0485,-4.0487,0,-4.0222,-4.0245,-4.0334,-4.0342,-4.0357,-4.0397,-4.0424,-4.0455,-4.047,-4.0465,-4.0484,-4.0459,-4.0511,-4.0455,-4.0526,-4.0478,-4.0497,-4.0499,-4.0503,-4.0505,-4.0442,-4.0539,-4.0704,-4.072,-4.051,-4.0509,-4.0507,0,-4.0329,-4.0383,-4.0443,-4.0453,-4.0464,-4.0493,-4.0499,-4.0511,-4.0531,-4.0555,-4.0568,-4.0599,-4.0615,-4.064,-4.0625,-4.0585,-4.0699,-4.0641,-4.0696,-4.0697,-4.0721,-4.0719,-4.089,-4.0735,-4.0735,-4.0734,-4.0734,0,-4.0456,-4.0512,-4.0491,-4.0528,-4.059,-4.0568,-4.063,-4.0631,-4.0643,-4.068,-4.0647,-4.0683,-4.0662,-4.0697,-4.0686,-4.0746,-4.0755,-4.0752,-4.0748,-4.0754,-4.0755,-4.0765,-4.0757,-4.0739,-4.0738,-4.0737,-4.0736,0,-4.0585,-4.0573,-4.0636,-4.0641,-4.0644,-4.069,-4.0694,-4.0729,-4.0724,-4.0772,-4.0782,-4.0775,-4.0814,-4.0802,-4.0845,-4.0838,-4.0915,-4.0902,-4.0909,-4.0906,-4.0961,-4.0956,-4.1143,-4.1167,-4.0998,-4.1,-4.1001,0,-4.0665,-4.0707,-4.0717,-4.074,-4.0748,-4.0785,-4.0805,-4.0786,-4.0809,-4.083,-4.0863,-4.0899,-4.0927,-4.0992,-4.0991,-4.1024,-4.1011,-4.1075,-4.1016,-4.1021,-4.1012,-4.1009,-4.1013,-4.1086,-4.1088,-4.109,-4.1091,0,-4.081,-4.0803,-4.0833,-4.0862,-4.0888,-4.091,-4.0929,-4.095,-4.0932,-4.096,-4.0999,-4.1021,-4.1065,-4.1102,-4.1132,-4.114,-4.1113,-4.111,-4.1124,-4.113,-4.1132,-4.1131,-4.094,-4.1105,-4.1104,-4.1103,-4.1102,-4.1101,-4.0917,-4.0952,-4.0965,-4.1001,-4.1013,-4.1033,-4.1066,-4.1065,-4.1098,-4.1132,-4.1119,-4.1165,-4.1181,-4.1218,-4.123,-4.1266,-4.1242,-4.1263,-4.1268,-4.1273,-4.128,-4.1128,-4.1272,-4.1272,-4.1271,-4.1271,-4.1271,0,-4.1059,-4.1066,-4.1099,-4.1127,-4.1155,-4.1128,-4.1148,-4.1174,-4.1214,-4.1231,-4.126,-4.1306,-4.1342,-4.1345,-4.1379,-4.1408,-4.1397,-4.1418,-4.1415,-4.1417,-4.13,-4.1284,-4.1426,-4.1426,-4.1426,-4.1426,-4.1426,-4.1426,-4.1136,-4.1195,-4.119,-4.1256,-4.1262,-4.1306,-4.132,-4.1339,-4.1352,-4.1405,-4.1435,-4.1436,-4.1448,-4.1483,-4.1516,-4.1516,-4.1529,-4.1555,-4.155,-4.1441,-4.1425,-4.141,-4.1395,-4.1558,-4.1559,-4.1664,-4.1665,-4.1666]},{"header":{"parameterUnit":"m.s-1","parameterCategory":1,"la1":30.2991,"la2":30.254,"lo1":-89.0895,"lo2":-89.0444,"dy":0.0017,"dx":0.0017,"nx":28,"ny":28,"refTime":"2025-12-23T09:00:00:Z","depth":0,"parameterNumber":3,"parameterNumberName":"V-component_of_WINDS"},"data":[0,0,0,0,0,0,0,0,0,0,0,0,0,0,0,0,0,0,0,0,0,0,0,0,0,0,0,0,0,0,0,0,0,0,0,0,0,0,0,0,0,0,0,0,0,0,0,0,0,0,0,0,0,0,0,0,0,0,0.8207,0.8208,0,0.8233,0.8233,0.8233,0.8252,0.8252,0.8252,0.8252,0.8278,0.8278,0.8279,0,0,0,0,0,0,0,0,0,0,0,0,0,0.8175,0.8176,0.8207,0.8208,0.8208,0.8233,0.8233,0.8233,0.8251,0.8252,0.8252,0.8252,0.8278,0.8278,0.8279,0,0,0,0,0,0,0,0,0,0,0,0,0,0.8194,0.8176,0.8207,0.822,0.8221,0.8233,0.8233,0.8234,0.8251,0.8252,0.8252,0.8252,0.8277,0.8278,0.8279,0.828,0,0,0.8282,0.8282,0,0,0,0,0,0,0,0,0.8193,0.8195,0.8218,0.8219,0.8221,0.8239,0.8231,0.8249,0.8251,0.824,0.8252,0.8252,0.8265,0.8267,0.8271,0.8281,0.8282,0.8282,0.8282,0.8282,0.8283,0,0,0,0,0,0,0,0.8191,0.8194,0.8217,0.8218,0.822,0.8225,0.8228,0.8235,0.8251,0.8241,0.8242,0.8245,0.8266,0.827,0.8272,0.8282,0.8282,0.8282,0.8283,0.8283,0.8296,0.8296,0,0,0,0,0,0,0.8188,0.8193,0.8217,0.8218,0.8207,0.8225,0.8228,0.8233,0.8251,0.8254,0.8245,0.8246,0.8269,0.8271,0.8273,0.8276,0.8282,0.8283,0.8284,0.8297,0.8296,0.8296,0,0,0,0,0,0,0.8187,0.819,0.8216,0.8206,0.821,0.8225,0.8231,0.8233,0.8238,0.8254,0.8257,0.8247,0.8269,0.8271,0.8278,0.8277,0.8284,0.8284,0.8297,0.8297,0.8296,0.8282,0,0,0,0,0,0,0.8186,0.819,0.819,0.8206,0.821,0.822,0.823,0.8234,0.8239,0.8241,0.8256,0.8259,0.8269,0.8277,0.8279,0.8278,0.8285,0.8297,0.8297,0.8296,0.8282,0.8281,0.828,0,0,0,0,0,0.8185,0.8184,0.819,0.8192,0.821,0.822,0.8223,0.8235,0.8239,0.824,0.825,0.8258,0.8277,0.8278,0.828,0.8279,0.8297,0.8297,0.8296,0.8283,0.8281,0.828,0,0,0,0,0,0,0.8167,0.8186,0.8193,0.8197,0.8207,0.8223,0.8224,0.8232,0.8241,0.8242,0.8257,0.826,0.8266,0.8273,0.8274,0.8282,0.8288,0.8288,0.8277,0.8275,0.8274,0.8272,0.8286,0,0,0,0,0,0.8164,0.817,0.8186,0.8189,0.8193,0.8208,0.8213,0.8221,0.8232,0.8236,0.8247,0.8258,0.8266,0.8271,0.828,0.8284,0.8288,0.8285,0.8283,0.8282,0.8282,0.8286,0.8286,0.8295,0.8295,0.8295,0,0,0.8156,0.8168,0.8171,0.8185,0.8194,0.8201,0.8211,0.8217,0.8223,0.8237,0.8245,0.8253,0.8266,0.8272,0.8275,0.8278,0.8281,0.8282,0.8281,0.8282,0.8286,0.8285,0.8284,0.8295,0.8295,0.8295,0,0,0.8147,0.8156,0.8159,0.8168,0.8181,0.8191,0.8192,0.8208,0.8214,0.8222,0.8234,0.824,0.8254,0.8263,0.8269,0.8265,0.8273,0.8268,0.8261,0.8265,0.8264,0.8264,0.8263,0.8262,0.8268,0.8267,0.8267,0,0.8136,0.8146,0.816,0.8166,0.8172,0.8187,0.8191,0.8199,0.8214,0.8218,0.8222,0.8241,0.825,0.8259,0.8258,0.8263,0.8265,0.8266,0.8263,0.8263,0.8262,0.8262,0.8262,0.8267,0.8267,0.8267,0.8267,0,0.8133,0.814,0.8142,0.8157,0.8164,0.8169,0.8183,0.8189,0.8197,0.8207,0.8215,0.8227,0.8239,0.8242,0.825,0.8253,0.8254,0.826,0.8267,0.826,0.826,0.826,0.8266,0.8266,0.8266,0.8266,0,0,0.8112,0.8136,0.8136,0.8144,0.816,0.8166,0.8173,0.8185,0.8189,0.82,0.8206,0.8218,0.8225,0.8232,0.8241,0.8244,0.8242,0.825,0.8251,0.8249,0.8247,0.8242,0.8242,0.8247,0.8247,0.8247,0.8246,0,0.8106,0.8118,0.8131,0.8138,0.8146,0.816,0.8165,0.8177,0.8186,0.8194,0.8205,0.8214,0.8221,0.8226,0.823,0.8241,0.8242,0.8241,0.8254,0.8254,0.825,0.8242,0.8237,0.8235,0.8246,0.8246,0.8246,0,0.81,0.811,0.8119,0.8136,0.814,0.8144,0.8157,0.8165,0.8178,0.8185,0.8194,0.8204,0.8212,0.8218,0.823,0.8229,0.8235,0.8242,0.8242,0.8244,0.825,0.8244,0.8234,0.8234,0.8246,0.8246,0.8246,0,0.8085,0.8101,0.8109,0.8115,0.8135,0.8138,0.8147,0.816,0.8167,0.8178,0.8183,0.8195,0.8202,0.8211,0.8225,0.8227,0.8236,0.8242,0.8242,0.8242,0.8243,0.8243,0.8235,0.8246,0.8246,0.8246,0.8246,0,0.8076,0.8081,0.8102,0.8107,0.8113,0.8128,0.8134,0.8144,0.8156,0.8164,0.8177,0.8183,0.8201,0.821,0.822,0.8229,0.8232,0.8238,0.8241,0.8237,0.8237,0.8241,0.8242,0.8246,0.8246,0.8246,0.8246,0,0.8061,0.8075,0.8084,0.8103,0.8108,0.8112,0.8128,0.8133,0.8144,0.8154,0.8157,0.8174,0.8185,0.82,0.8215,0.8223,0.8231,0.8235,0.8226,0.8228,0.8228,0.8228,0.8223,0.8223,0.8234,0.8234,0.8233,0,0.8055,0.8059,0.8078,0.8084,0.8093,0.8102,0.8109,0.8125,0.8132,0.8149,0.8152,0.8165,0.8176,0.8193,0.8207,0.822,0.8225,0.8222,0.8227,0.8223,0.8226,0.8225,0.8226,0.8221,0.8221,0.8221,0.822,0,0.8043,0.805,0.806,0.8073,0.8082,0.8093,0.8104,0.8108,0.8126,0.8134,0.8146,0.8155,0.8171,0.8184,0.8198,0.8208,0.8217,0.8219,0.822,0.8216,0.8211,0.8215,0.8224,0.8219,0.8219,0.8219,0.8219,0.8219,0.8032,0.8037,0.8052,0.8063,0.8074,0.8085,0.8091,0.8103,0.8114,0.8129,0.8137,0.8149,0.8164,0.8185,0.8194,0.8204,0.8207,0.8208,0.8209,0.8209,0.8208,0.821,0.8206,0.8207,0.8207,0.8207,0.8207,0,0.8022,0.8033,0.8043,0.8059,0.8068,0.8077,0.809,0.8097,0.8108,0.8121,0.8131,0.8146,0.8159,0.8174,0.8188,0.8193,0.8198,0.8196,0.8196,0.8198,0.8204,0.8202,0.8192,0.8192,0.8192,0.8192,0.8192,0.8192,0.8018,0.8027,0.8036,0.8051,0.8062,0.8074,0.8081,0.8091,0.8102,0.8117,0.8128,0.8138,0.8153,0.8168,0.818,0.8184,0.8189,0.8186,0.8192,0.8197,0.8198,0.8199,0.8197,0.8187,0.8187,0.8186,0.8186,0.8186]}]]